Wind_Speed
13 12 14 9 10 10 9 10 9 7 8 9 10 10 10 12 15 15 15 14 13 12 11 11 12 11 10 10 9 10 10 10 10 12 13 14 15 17 15 15 16 17 17
16 15 14 11 12 11 10 11 10 8 8 9 9 8 9 11 13 13 15 15 15 14 12 13 13 12 11 10 10 11 11 11 12 12 14 16 17 18 17 16 18 19 20
6 9 9 12 13 12 11 11 11 10 9 9 8 8 9 11 12 13 14 15 16 16 14 13 14 13 13 12 12 11 11 11 12 13 15 16 18 19 19 18 21 20 20
11 11 13 16 14 12 11 12 13 11 10 9 9 10 11 11 12 14 14 16 17 17 16 16 14 12 15 14 13 13 13 13 13 14 15 17 19 21 21 22 23 23 22
18 17 18 19 16 13 12 13 13 13 12 10 11 11 12 13 12 14 16 17 18 18 18 15 15 13 15 16 15 14 14 14 14 16 16 18 21 22 23 24 24 24 23
18 19 21 17 16 14 13 14 14 15 14 12 12 13 12 12 13 15 17 18 18 19 18 17 16 16 17 19 17 17 17 17 16 16 19 21 22 24 23 26 26 26 25
26 25 22 18 17 16 15 15 15 16 15 14 14 14 12 12 13 15 17 18 18 20 19 16 16 15 19 21 22 19 19 17 17 20 22 23 24 25 27 28 28 28 27
21 20 21 20 20 19 18 16 16 17 16 16 14 15 13 12 13 14 17 19 20 20 18 18 19 17 18 17 24 25 21 20 20 21 24 25 25 28 31 31 29 28 27
27 27 28 23 22 21 19 17 18 19 18 17 15 15 14 14 14 15 16 19 21 22 21 20 19 19 20 16 15 28 23 21 21 22 22 25 31 34 33 32 32 29 29
25 22 25 24 23 23 22 20 19 20 18 17 17 17 16 16 16 16 17 21 23 24 24 23 20 22 19 21 15 31 27 23 22 22 21 17 33 28 39 33 31 27 27
30 23 23 26 27 27 26 21 20 19 19 19 17 17 16 14 15 17 19 21 22 23 23 23 22 21 20 24 26 33 28 27 25 23 23 19 18 27 21 23 21 18 19
26 22 23 28 31 31 29 23 21 21 21 19 19 17 14 14 15 16 20 21 22 23 24 24 25 21 20 27 30 36 33 29 29 27 26 25 19 18 12 13 14 16 19
26 23 25 27 31 30 28 23 22 23 22 19 19 17 16 15 16 17 20 21 21 22 23 25 24 22 28 22 30 36 35 34 32 29 28 26 21 19 18 17 16 14 15
31 26 28 30 30 27 26 25 24 23 22 20 20 19 18 15 16 18 19 20 18 21 26 28 26 28 33 22 30 32 33 34 33 31 29 27 22 17 19 20 17 14 15
36 31 30 29 28 29 26 26 23 23 23 21 21 20 18 15 16 17 18 19 14 19 24 26 25 31 31 32 36 28 35 33 35 31 29 31 22 18 17 18 21 17 18
38 32 31 30 30 31 29 27 25 23 24 22 21 20 18 15 13 16 16 24 22 16 16 27 32 25 26 33 35 35 33 37 39 36 39 27 25 21 19 22 22 19 17
42 36 34 28 28 31 33 31 27 25 24 22 20 19 17 15 12 15 16 16 14 22 23 29 33 28 37 37 34 39 34 32 35 35 33 30 29 27 26 25 21 18 16
45 40 32 30 30 30 35 33 28 25 25 23 21 20 18 15 13 15 15 13 20 20 29 25 21 29 30 31 33 38 39 41 33 35 36 30 32 28 28 25 28 20 17
44 43 39 30 35 34 33 34 31 28 27 24 21 20 17 15 14 15 16 17 24 33 26 32 31 27 31 37 33 43 47 40 33 40 35 34 34 22 21 20 23 20 21
44 41 40 35 32 35 30 37 33 31 29 26 23 22 19 15 14 15 16 22 19 32 29 32 28 31 37 36 40 45 39 36 35 37 40 36 26 25 18 16 19 20 18
45 40 35 35 34 36 36 32 35 34 31 29 26 23 20 18 17 21 31 31 26 23 22 25 26 36 44 43 47 47 48 44 41 38 39 38 26 26 23 19 18 18 19
43 44 41 41 37 40 33 43 39 33 33 31 29 25 22 20 20 24 27 37 32 32 32 25 28 29 41 44 39 39 38 34 35 34 38 25 21 14 15 19 21 21 18
42 44 46 33 47 35 43 37 43 39 36 37 33 27 25 24 24 25 28 32 34 35 38 35 37 34 35 40 36 33 36 41 39 37 40 25 23 22 22 21 20 18 17
40 43 47 52 38 36 47 39 40 48 43 37 34 28 28 26 26 26 27 29 34 36 39 35 35 37 38 41 36 45 39 30 37 36 34 28 27 24 22 20 19 17 17
33 38 41 45 49 51 40 50 45 46 40 37 38 34 32 29 28 28 27 26 28 29 32 37 35 34 36 37 37 32 35 37 23 14 24 30 31 24 19 19 18 17 15
36 37 36 34 36 43 51 48 53 42 41 43 43 39 35 33 31 30 30 27 27 30 36 27 34 34 37 37 38 32 28 35 29 26 25 25 25 27 25 23 22 17 13
Wind_Direction
269 263 274 286 305 304 264 248 255 256 242 237 237 236 236 231 225 224 225 225 225 222 220 217 218 207 201 199 192 191 188 189 189 188 188 185 186 182 175 170 166 163 156
251 260 276 274 303 307 273 250 255 259 259 254 252 250 245 238 229 222 223 225 225 223 217 217 219 207 202 198 199 191 190 192 193 186 188 185 184 179 177 173 170 164 160
252 250 266 288 300 301 280 257 257 254 262 258 257 255 248 240 228 221 222 223 224 224 220 220 222 211 204 202 202 196 193 189 190 188 189 186 176 175 177 173 167 164 160
263 275 283 296 291 291 289 268 261 259 264 257 251 246 243 237 231 222 223 225 226 227 224 220 218 210 208 206 199 196 194 195 189 190 189 184 178 175 174 166 164 162 159
263 268 290 286 281 281 290 271 259 260 263 261 254 250 241 237 234 226 224 225 225 226 225 222 216 208 209 201 199 197 201 199 193 188 187 185 183 175 172 166 164 163 161
260 268 291 285 275 277 289 274 260 260 265 266 260 257 243 240 234 229 225 225 225 224 225 224 225 213 215 218 208 198 203 202 196 190 187 184 179 174 172 167 165 165 162
266 272 279 276 274 276 288 277 263 263 262 262 261 259 243 231 233 231 229 229 227 227 228 227 228 221 219 218 195 206 201 200 199 191 185 181 181 178 169 169 169 169 165
266 266 268 272 272 273 286 283 273 268 260 258 260 258 245 234 231 237 233 232 229 230 227 229 231 222 224 235 209 205 199 197 197 195 187 184 188 180 177 175 174 172 170
269 266 269 263 263 272 281 279 272 266 260 259 258 254 245 234 231 236 236 236 231 230 231 232 232 235 236 244 235 203 194 199 194 195 195 197 189 185 182 178 180 176 173
272 261 257 257 252 266 276 272 269 265 265 256 254 252 247 240 237 234 236 238 233 228 229 235 236 234 239 237 247 211 192 193 197 197 192 201 197 180 185 176 177 183 182
274 259 255 257 259 263 269 263 261 260 257 254 255 255 256 251 245 239 241 240 238 235 231 232 234 233 247 219 220 203 190 193 194 193 193 181 175 146 170 160 167 162 153
263 260 256 257 258 257 262 255 254 255 254 252 255 255 258 249 246 241 245 241 235 236 230 228 227 234 245 237 207 211 198 195 201 195 198 203 205 202 188 151 148 148 150
251 258 263 261 256 253 249 243 247 250 252 255 257 256 250 247 247 246 247 244 234 237 230 230 229 224 204 230 213 210 193 196 197 192 192 198 195 194 189 172 159 161 164
243 254 259 260 258 249 236 232 241 247 251 255 258 255 252 250 250 247 246 237 230 238 233 232 233 230 228 214 189 199 198 197 198 190 194 193 191 190 190 187 181 175 178
247 252 251 253 253 253 237 234 241 246 251 252 255 252 253 251 253 250 246 214 217 247 229 228 229 223 217 205 193 198 198 203 203 190 197 184 191 202 203 211 194 193 192
237 233 237 241 244 242 236 236 240 244 252 253 255 251 252 251 250 251 237 208 220 207 195 213 193 181 177 185 187 203 204 212 206 195 201 206 195 201 204 190 196 198 200
240 236 221 223 235 232 232 234 239 240 245 249 249 246 248 248 240 239 227 226 221 164 170 190 179 185 186 189 206 214 197 195 204 198 196 203 208 190 192 196 199 203 211
245 240 218 219 208 231 233 232 236 238 241 241 244 246 244 243 229 221 212 209 177 203 182 191 183 189 184 186 190 200 205 209 184 195 195 200 205 212 210 212 207 217 226
239 230 218 219 215 214 228 233 233 233 235 239 240 243 240 240 226 203 184 181 195 187 187 199 189 197 184 181 186 184 186 198 202 198 199 204 204 213 187 188 202 210 225
228 223 219 214 221 206 215 231 232 230 229 233 236 239 239 233 220 200 182 188 186 203 204 201 203 198 188 190 186 189 188 192 200 192 198 206 209 209 199 207 208 213 221
221 219 222 212 219 207 224 225 233 230 226 230 232 231 237 235 212 206 187 193 193 195 206 207 205 200 194 206 209 207 209 206 212 204 208 212 209 206 194 204 215 217 216
217 223 221 230 223 215 218 224 225 228 224 227 231 229 230 228 218 206 205 199 206 207 204 210 200 197 211 197 197 203 205 203 208 214 211 199 208 216 207 211 212 212 214
219 221 227 225 225 228 210 220 225 224 230 221 224 224 227 224 219 212 212 214 214 207 210 220 214 216 220 219 225 225 217 219 221 226 223 186 198 206 207 210 215 218 219
219 218 222 217 221 221 219 215 226 218 225 231 222 224 230 229 224 219 217 221 215 210 216 218 222 224 224 230 234 229 232 229 225 216 201 192 198 202 208 213 216 220 223
223 223 224 228 231 236 225 218 221 235 221 220 222 223 227 228 227 224 223 224 222 212 208 216 224 225 221 227 237 239 233 218 199 206 210 203 191 190 202 208 210 216 221
239 229 224 228 234 235 233 225 225 229 224 224 227 222 223 228 228 226 224 227 222 213 213 207 228 223 216 213 220 234 242 230 207 193 200 207 204 203 210 215 220 210 209
Height
3125 3125 3126 3127 3127 3127 3126 3126 3127 3127 3127 3128 3129 3130 3130 3131 3132 3134 3135 3136 3138 3140 3142 3143 3144 3146 3148 3149 3151 3152 3153 3155 3157 3158 3159 3161 3163 3165 3167 3169 3170 3172 3174
3122 3123 3125 3125 3125 3125 3124 3125 3125 3125 3125 3126 3126 3127 3128 3128 3130 3131 3133 3135 3136 3138 3140 3141 3143 3145 3147 3148 3150 3151 3152 3154 3156 3157 3158 3160 3162 3165 3167 3169 3171 3172 3174
3120 3122 3123 3123 3123 3123 3122 3122 3123 3123 3124 3124 3124 3125 3125 3126 3127 3129 3131 3132 3134 3136 3138 3140 3141 3144 3145 3147 3148 3150 3152 3153 3155 3157 3158 3159 3161 3164 3166 3168 3170 3172 3175
3119 3120 3120 3120 3121 3121 3120 3120 3121 3121 3122 3122 3123 3123 3123 3124 3125 3126 3128 3130 3132 3133 3135 3137 3140 3142 3144 3146 3147 3149 3151 3153 3154 3156 3158 3159 3161 3163 3165 3168 3170 3172 3175
3116 3117 3117 3117 3118 3118 3118 3118 3118 3118 3119 3120 3121 3121 3121 3121 3123 3124 3126 3127 3129 3130 3133 3135 3138 3140 3142 3144 3146 3148 3150 3152 3153 3155 3157 3159 3160 3162 3165 3167 3170 3173 3175
3113 3114 3114 3114 3114 3115 3115 3115 3115 3116 3116 3117 3118 3118 3118 3119 3120 3122 3123 3124 3126 3128 3131 3133 3135 3138 3140 3142 3144 3146 3149 3151 3153 3154 3156 3157 3159 3162 3164 3168 3171 3173 3175
3110 3111 3111 3111 3111 3112 3112 3112 3112 3113 3113 3114 3114 3115 3115 3115 3117 3119 3121 3122 3124 3126 3128 3131 3133 3135 3136 3139 3141 3146 3148 3151 3153 3153 3155 3157 3159 3161 3163 3166 3169 3172 3174
3105 3106 3106 3107 3107 3108 3108 3109 3109 3110 3110 3110 3111 3112 3112 3113 3114 3116 3117 3119 3122 3123 3125 3128 3130 3131 3134 3136 3139 3144 3146 3149 3151 3152 3153 3156 3158 3160 3162 3165 3169 3172 3175
3100 3101 3101 3101 3102 3103 3104 3105 3105 3106 3107 3107 3108 3109 3109 3110 3111 3113 3114 3117 3119 3120 3122 3124 3126 3129 3131 3133 3136 3142 3145 3149 3150 3151 3153 3155 3155 3156 3159 3163 3167 3170 3173
3094 3096 3096 3096 3098 3099 3100 3100 3102 3102 3103 3103 3104 3105 3106 3106 3107 3109 3111 3114 3114 3115 3118 3121 3122 3125 3128 3130 3132 3140 3142 3147 3148 3151 3153 3153 3137 3149 3153 3160 3166 3168 3171
3087 3091 3091 3091 3092 3094 3095 3096 3097 3098 3098 3098 3100 3101 3103 3104 3104 3105 3106 3110 3111 3112 3115 3117 3119 3121 3123 3125 3130 3137 3140 3144 3146 3150 3152 3155 3141 3148 3154 3158 3164 3166 3168
3082 3083 3083 3085 3085 3087 3089 3091 3092 3093 3094 3094 3095 3098 3100 3100 3101 3101 3102 3105 3106 3107 3109 3112 3115 3116 3118 3122 3124 3133 3138 3142 3144 3148 3152 3153 3154 3155 3156 3160 3166 3170 3173
3077 3076 3076 3077 3076 3080 3082 3085 3087 3087 3089 3090 3091 3094 3095 3096 3096 3096 3098 3099 3101 3102 3104 3105 3109 3113 3114 3119 3120 3130 3135 3138 3142 3146 3150 3152 3155 3156 3158 3163 3167 3170 3173
3071 3071 3070 3068 3069 3073 3076 3080 3081 3082 3084 3086 3087 3089 3090 3092 3092 3092 3093 3095 3096 3098 3100 3101 3105 3108 3112 3118 3121 3126 3132 3136 3140 3144 3146 3151 3154 3155 3158 3161 3165 3170 3174
3060 3064 3066 3064 3064 3067 3070 3073 3076 3078 3078 3080 3082 3084 3086 3087 3088 3087 3088 3091 3093 3093 3093 3096 3099 3101 3108 3113 3120 3125 3130 3135 3138 3142 3144 3149 3153 3156 3159 3162 3165 3169 3172
3048 3049 3056 3059 3059 3061 3064 3066 3070 3073 3074 3076 3077 3079 3081 3083 3083 3082 3084 3088 3090 3091 3090 3091 3095 3101 3104 3111 3116 3122 3128 3132 3136 3140 3144 3147 3152 3156 3159 3162 3165 3168 3171
3039 3043 3045 3049 3052 3055 3058 3061 3065 3068 3069 3071 3072 3074 3077 3078 3079 3079 3080 3083 3085 3087 3089 3092 3095 3100 3105 3110 3115 3120 3124 3128 3132 3136 3141 3146 3150 3154 3158 3161 3164 3167 3170
3031 3037 3037 3040 3042 3049 3050 3054 3059 3062 3065 3066 3068 3069 3072 3074 3076 3077 3077 3079 3082 3084 3087 3092 3096 3099 3102 3106 3112 3117 3121 3126 3131 3134 3139 3144 3148 3152 3155 3158 3162 3165 3168
3020 3026 3030 3033 3033 3037 3042 3047 3052 3055 3058 3061 3063 3064 3067 3070 3072 3074 3076 3078 3081 3085 3087 3090 3093 3098 3102 3104 3109 3114 3119 3124 3128 3133 3137 3140 3144 3147 3151 3155 3159 3163 3167
3010 3015 3021 3025 3027 3032 3036 3039 3044 3048 3052 3055 3058 3059 3062 3065 3068 3071 3074 3075 3080 3083 3086 3089 3092 3095 3099 3103 3108 3114 3118 3122 3126 3129 3135 3139 3142 3147 3150 3154 3159 3162 3164
3004 3007 3015 3020 3022 3027 3030 3033 3035 3041 3045 3049 3052 3055 3057 3061 3065 3068 3073 3076 3079 3080 3083 3087 3087 3090 3096 3101 3104 3108 3113 3117 3121 3125 3131 3135 3139 3143 3145 3153 3156 3159 3161
2996 3001 3006 3010 3014 3019 3023 3021 3027 3033 3038 3043 3046 3050 3053 3057 3061 3064 3068 3072 3074 3077 3080 3084 3087 3089 3095 3097 3101 3105 3109 3114 3118 3121 3125 3128 3133 3139 3144 3150 3153 3155 3157
2989 2993 2997 3000 3005 3009 3015 3019 3020 3026 3029 3033 3039 3044 3048 3051 3055 3060 3063 3066 3070 3074 3078 3081 3085 3089 3094 3097 3099 3102 3104 3107 3114 3117 3121 3127 3134 3140 3143 3146 3149 3151 3153
2980 2985 2991 2994 2995 3004 3009 3010 3016 3015 3020 3028 3034 3039 3042 3046 3050 3054 3058 3062 3065 3069 3072 3076 3080 3083 3088 3091 3094 3097 3101 3107 3107 3112 3115 3124 3130 3135 3140 3142 3145 3148 3151
2972 2976 2981 2986 2991 2994 2994 3005 3006 3011 3013 3020 3026 3030 3034 3039 3044 3047 3052 3055 3058 3062 3067 3070 3073 3077 3081 3086 3089 3091 3095 3098 3104 3110 3115 3122 3126 3129 3134 3139 3142 3144 3147
2963 2967 2972 2977 2982 2984 2988 2993 3000 3001 3004 3008 3014 3020 3027 3031 3036 3041 3045 3050 3053 3057 3062 3065 3068 3072 3076 3081 3085 3088 3091 3095 3097 3104 3110 3117 3123 3127 3131 3136 3139 3141 3143